Погода в Хокитике

Новая Зеландия     42°42′58″S   170°57′59″E
темп.,
°C
ветер,
м/с
пор.,
м/с
влажн.,
%
обл.,
%
осадки,
мм/ч
давл.,
гПа
погр.,
м
12 августа, пт
пт1200:00+3вюв23682 0.0 102480
03:00+3вюв22684 0.0 102471
06:00+3вюв227114 0.0 102471
09:00+5вюв12652 0.0 102596
12:00+9сз11480 0.0 1024565
15:00+9з33534 0.0 1023613
18:00+7юз23735 0.0 1023364
21:00+4вюв22825 0.0 102466
13 августа, сб
сб1300:00+4вюв227662 0.0 102569
03:00+3вюв227684 0.0 102565
06:00+3вюв227712 0.0 102568
09:00+5вюв12708 0.0 1026101
12:00+10сз11565 0.0 1027589
15:00+10зсз22582 0.0 1025611
18:00+7ююз11741 0.0 102688
21:00+5юв22840 0.0 102856
14 августа, вс
вс1400:00+4вюв22820 0.0 102963
03:00+4вюв22822 0.0 102971
06:00+4вюв23804 0.0 102872
09:00+6вюв22716 0.0 1029108
12:00+11с12587 0.0 1028786
15:00+11ссз226211 0.0 1026759
18:00+8вюв0176100 0.0 1026101
21:00+7юв2280100 0.0 102765
15 августа, пн
пн1500:00+8юв227599 0.1 102788
03:00+7вюв1276100 0.0 1026103
06:00+6вюв2280100 0.0 102686
09:00+7вюв2474100 0.0 1027137
12:00+12в3457100 0.0 1025544
15:00+11вюв2370100 0.1 1023148
18:00+10вюв2576100 0.1 1022129
21:00+10вюв3480100 0.2 1021109
16 августа, вт
вт1600:00+9вюв3593100 5.8 1018166
03:00+10в41094100 14.3 1016484
06:00+11св81894100 27.2 10141024
09:00+13ссз3593100 12.1 1015174
12:00+11всв2498100 18.3 1016147
15:00+14всв3585100 1.0 1015267
18:00+11св1291100 2.8 101619
21:00+9вюв2294100 0.1 101747